When you browse on this site, cookies collect data to enhance your experience and personalize the content and advertising you see.
Visit our Privacy Policy to learn more. By continuing to use the site, you agree to this use of cookies and data.
  • en Suisse
  • Liste des pays
  • À 7 jours
  • Température de l'eau
  • Carte météo
  • Widgets météo
  • user-avatar
    Se connecter

    Météo par heure à Rawson

    Ce jour, 6 Juin, Samedi

    Heure Température Précipitation Vent Pression Humidité
    00:00 +10°C° 0 mm 5 m/s 756 mmHg 31%
    01:00 +10°C° 0 mm 6 m/s 755 mmHg 30%
    02:00 +10°C° 0 mm 6 m/s 755 mmHg 29%
    03:00 +10°C° 0 mm 6 m/s 755 mmHg 28%
    04:00 +10°C° 0 mm 7 m/s 754 mmHg 27%
    05:00 +10°C° 0 mm 7 m/s 754 mmHg 26%
    06:00 +10°C° 0 mm 7 m/s 753 mmHg 25%
    07:00 +10°C° 0 mm 7 m/s 753 mmHg 25%
    08:00 +10°C° 0 mm 7 m/s 753 mmHg 24%
    09:00 +12°C° 0 mm 8 m/s 753 mmHg 22%
    10:00 +13°C° 0 mm 8 m/s 753 mmHg 20%
    11:00 +16°C° 0 mm 9 m/s 753 mmHg 18%
    12:00 +17°C° 0 mm 10 m/s 752 mmHg 19%
    13:00 +19°C° 0 mm 11 m/s 751 mmHg 19%
    14:00 +21°C° 0 mm 12 m/s 751 mmHg 19%
    15:00 +19°C° 0 mm 12 m/s 750 mmHg 23%
    16:00 +18°C° 0 mm 12 m/s 750 mmHg 26%
    17:00 +17°C° 0 mm 12 m/s 750 mmHg 30%
    18:00 +15°C° 0 mm 12 m/s 750 mmHg 31%
    19:00 +15°C° 0 mm 12 m/s 750 mmHg 33%
    20:00 +14°C° 0 mm 12 m/s 751 mmHg 34%
    21:00 +14°C° 0 mm 11 m/s 752 mmHg 37%
    22:00 +13°C° 0 mm 11 m/s 752 mmHg 40%
    23:00 +13°C° 0 mm 11 m/s 753 mmHg 44%

    Demain, 7 Juin, Dimanche

    Heure Température Précipitation Vent Pression Humidité
    00:00 +12°C° 0 mm 9 m/s 754 mmHg 46%
    01:00 +10°C° 0 mm 8 m/s 755 mmHg 48%
    02:00 +9°C° 0 mm 7 m/s 756 mmHg 50%
    03:00 +9°C° 0 mm 7 m/s 756 mmHg 48%
    04:00 +8°C° 0 mm 6 m/s 757 mmHg 47%
    05:00 +8°C° 0 mm 5 m/s 757 mmHg 45%
    06:00 +7°C° 0 mm 5 m/s 758 mmHg 47%
    07:00 +7°C° 0 mm 5 m/s 758 mmHg 49%
    08:00 +7°C° 0 mm 5 m/s 759 mmHg 52%
    09:00 +8°C° 0 mm 5 m/s 759 mmHg 44%
    10:00 +10°C° 0 mm 5 m/s 759 mmHg 37%
    11:00 +13°C° 0 mm 5 m/s 759 mmHg 29%
    12:00 +14°C° 0 mm 6 m/s 758 mmHg 27%
    13:00 +15°C° 0 mm 7 m/s 757 mmHg 24%
    14:00 +15°C° 0 mm 8 m/s 757 mmHg 21%
    15:00 +14°C° 0 mm 7 m/s 756 mmHg 24%
    16:00 +13°C° 0 mm 6 m/s 756 mmHg 28%
    17:00 +11°C° 0 mm 6 m/s 756 mmHg 31%
    18:00 +11°C° 0 mm 6 m/s 755 mmHg 30%
    19:00 +11°C° 0 mm 7 m/s 755 mmHg 30%
    20:00 +10°C° 0 mm 8 m/s 755 mmHg 30%
    21:00 +10°C° 0 mm 8 m/s 755 mmHg 35%
    22:00 +10°C° 0 mm 8 m/s 755 mmHg 39%
    23:00 +10°C° 0 mm 8 m/s 754 mmHg 43%

    Après-demain, 8 Juin, Lundi

    Heure Température Précipitation Vent Pression Humidité
    00:00 +10°C° 0 mm 9 m/s 754 mmHg 41%
    01:00 +10°C° 0 mm 9 m/s 754 mmHg 39%
    02:00 +11°C° 0 mm 10 m/s 754 mmHg 37%
    03:00 +9°C° 0 mm 10 m/s 754 mmHg 36%
    04:00 +9°C° 0 mm 10 m/s 754 mmHg 35%
    05:00 +9°C° 0 mm 10 m/s 754 mmHg 35%
    06:00 +8°C° 0 mm 9 m/s 754 mmHg 38%
    07:00 +9°C° 0 mm 8 m/s 754 mmHg 41%
    08:00 +7°C° 0 mm 8 m/s 754 mmHg 44%
    09:00 +8°C° 0 mm 9 m/s 755 mmHg 42%
    10:00 +9°C° 0 mm 10 m/s 756 mmHg 39%
    11:00 +11°C° 0 mm 11 m/s 757 mmHg 37%
    12:00 +11°C° 0 mm 11 m/s 757 mmHg 34%
    13:00 +11°C° 0 mm 11 m/s 757 mmHg 31%
    14:00 +11°C° 0 mm 11 m/s 757 mmHg 28%
    15:00 +11°C° 0 mm 10 m/s 757 mmHg 29%
    16:00 +10°C° 0 mm 8 m/s 758 mmHg 30%
    17:00 +9°C° 0 mm 7 m/s 758 mmHg 31%
    18:00 +9°C° 0 mm 7 m/s 758 mmHg 34%
    19:00 +8°C° 0 mm 7 m/s 758 mmHg 36%
    20:00 +8°C° 0 mm 7 m/s 759 mmHg 38%
    21:00 +6°C° 0 mm 7 m/s 759 mmHg 40%
    22:00 +6°C° 0 mm 7 m/s 758 mmHg 42%
    23:00 +5°C° 0 mm 7 m/s 758 mmHg 43%

    9 Juin, Mardi

    Heure Température Précipitation Vent Pression Humidité
    00:00 +5°C° 0 mm 7 m/s 758 mmHg 43%
    01:00 +5°C° 0 mm 8 m/s 758 mmHg 42%
    02:00 +5°C° 0 mm 8 m/s 757 mmHg 41%
    03:00 +5°C° 0 mm 9 m/s 757 mmHg 40%
    04:00 +6°C° 0 mm 9 m/s 756 mmHg 39%
    05:00 +6°C° 0 mm 9 m/s 755 mmHg 37%
    06:00 +6°C° 0 mm 9 m/s 755 mmHg 37%
    07:00 +5°C° 0 mm 9 m/s 755 mmHg 37%
    08:00 +5°C° 0 mm 9 m/s 754 mmHg 37%
    09:00 +7°C° 0 mm 10 m/s 754 mmHg 33%
    10:00 +9°C° 0 mm 10 m/s 753 mmHg 30%
    11:00 +12°C° 0 mm 10 m/s 753 mmHg 26%
    12:00 +12°C° 0 mm 11 m/s 752 mmHg 26%
    13:00 +13°C° 0 mm 11 m/s 751 mmHg 26%
    14:00 +14°C° 0 mm 11 m/s 750 mmHg 25%
    15:00 +13°C° 0 mm 9 m/s 750 mmHg 27%
    16:00 +12°C° 0 mm 8 m/s 750 mmHg 29%
    17:00 +12°C° 0 mm 7 m/s 749 mmHg 31%
    18:00 +11°C° 0 mm 8 m/s 749 mmHg 33%
    19:00 +11°C° 0 mm 8 m/s 749 mmHg 35%
    20:00 +10°C° 0 mm 9 m/s 749 mmHg 36%
    21:00 +9°C° 0 mm 10 m/s 749 mmHg 38%
    22:00 +9°C° 0 mm 11 m/s 749 mmHg 40%
    23:00 +10°C° 0 mm 13 m/s 750 mmHg 42%

    10 Juin, Mercredi

    Heure Température Précipitation Vent Pression Humidité
    00:00 +9°C° 0 mm 12 m/s 750 mmHg 45%
    01:00 +9°C° 0 mm 11 m/s 750 mmHg 48%
    02:00 +8°C° 0 mm 10 m/s 750 mmHg 50%
    03:00 +8°C° 0 mm 9 m/s 750 mmHg 53%
    04:00 +8°C° 0 mm 9 m/s 751 mmHg 56%
    05:00 +7°C° 0 mm 8 m/s 751 mmHg 58%
    06:00 +7°C° 0 mm 8 m/s 751 mmHg 59%
    07:00 +7°C° 0 mm 8 m/s 750 mmHg 59%
    08:00 +7°C° 0 mm 8 m/s 750 mmHg 60%
    09:00 +10°C° 0 mm 9 m/s 750 mmHg 53%
    10:00 +11°C° 0 mm 9 m/s 750 mmHg 47%
    11:00 +13°C° 0 mm 10 m/s 750 mmHg 40%
    12:00 +14°C° 0 mm 10 m/s 750 mmHg 39%
    13:00 +14°C° 0 mm 10 m/s 749 mmHg 38%
    14:00 +16°C° 0 mm 10 m/s 748 mmHg 37%
    15:00 +15°C° 0 mm 9 m/s 748 mmHg 39%
    16:00 +15°C° 0 mm 8 m/s 748 mmHg 41%
    17:00 +14°C° 0 mm 7 m/s 747 mmHg 43%
    18:00 +13°C° 0 mm 8 m/s 747 mmHg 45%
    19:00 +12°C° 0 mm 8 m/s 746 mmHg 47%
    20:00 +12°C° 0 mm 8 m/s 746 mmHg 49%
    21:00 +12°C° 0 mm 9 m/s 745 mmHg 49%
    22:00 +12°C° 0 mm 9 m/s 745 mmHg 48%
    23:00 +13°C° 0 mm 10 m/s 745 mmHg 47%

    11 Juin, Jeudi

    Heure Température Précipitation Vent Pression Humidité
    00:00 +13°C° 0 mm 10 m/s 745 mmHg 48%
    01:00 +12°C° 0 mm 9 m/s 745 mmHg 48%
    02:00 +12°C° 0 mm 9 m/s 745 mmHg 48%
    03:00 +12°C° 0 mm 8 m/s 745 mmHg 50%
    04:00 +12°C° 0 mm 7 m/s 745 mmHg 52%
    05:00 +11°C° 0 mm 6 m/s 745 mmHg 54%
    06:00 +12°C° 0 mm 5 m/s 745 mmHg 56%
    07:00 +10°C° 0 mm 5 m/s 745 mmHg 58%
    08:00 +11°C° 0 mm 4 m/s 745 mmHg 60%
    09:00 +12°C° 0 mm 4 m/s 746 mmHg 57%
    10:00 +13°C° 0 mm 3 m/s 746 mmHg 54%
    11:00 +14°C° 0 mm 3 m/s 746 mmHg 51%
    12:00 +15°C° 0 mm 4 m/s 746 mmHg 50%
    13:00 +15°C° 0 mm 4 m/s 745 mmHg 49%
    14:00 +16°C° 0 mm 5 m/s 745 mmHg 48%
    15:00 +15°C° 0 mm 4 m/s 745 mmHg 53%
    16:00 +14°C° 0 mm 4 m/s 744 mmHg 59%
    17:00 +13°C° 0 mm 4 m/s 744 mmHg 65%
    18:00 +13°C° 0 mm 4 m/s 744 mmHg 61%
    19:00 +13°C° 0 mm 5 m/s 744 mmHg 58%
    20:00 +13°C° 0 mm 6 m/s 744 mmHg 55%
    21:00 +11°C° 0 mm 7 m/s 744 mmHg 57%
    22:00 +11°C° 0 mm 8 m/s 744 mmHg 58%
    23:00 +9°C° 0 mm 10 m/s 744 mmHg 60%
    Voir plus